Lufkin, TX

8:54 PM CDT on July 22, 2017 (GMT -0500)
Angelina County

Weather History for KLFK - January, 2014

Change the Weather History Date:

Thursday, January 23, 2014

  Actual Average Record
Temperature  
Mean Temperature 39 °F 49 °F  
Max Temperature 48 °F 60 °F 85 °F (1943)
Min Temperature 29 °F 39 °F 10 °F (1940)
Degree Days  
Heating Degree Days 26 16  
Month to date heating degree days 394 380  
Since 1 July heating degree days 1265 1158  
Cooling Degree Days 0 0  
Month to date cooling degree days 0 0  
Year to date cooling degree days 0 0  
Moisture  
Dew Point 31 °F    
Average Humidity 77    
Maximum Humidity 89    
Minimum Humidity 65    
Precipitation  
Precipitation 0.47 in 0.13 in 4.50 in (1920)
Month to date precipitation 1.08 3.04  
Year to date precipitation 1.08 3.04  
Snow  
Snow 0.00 in - - ()
Month to date snowfall 0.0  
Since 1 July snowfall T  
Snow Depth 0.00 in    
Sea Level Pressure  
Sea Level Pressure 30.50 in    
Wind  
Wind Speed 9 mph (NE)    
Max Wind Speed 17 mph    
Max Gust Speed 29 mph    
Visibility 5 miles    
Events Rain , Snow    
T = Trace of Precipitation, MM = Missing Value Source: NWS Daily Summary

Daily Weather History Graph

Daily Weather History Graph

Search for Another Location

Airport or City:

Trip Planner

Search our weather history database for the weather conditions in past years. The results will help you decide how hot, cold, wet, or windy it might be!

Date:

Astronomy

Jan. 23, 2014 Rise Set
Actual Time 7:15 AM CST 5:46 PM CST
Civil Twilight 6:50 AM CST 6:12 PM CST
Nautical Twilight 6:20 AM CST 6:41 PM CST
Astronomical Twilight 5:51 AM CST 7:10 PM CST
Moon No Moon Rise 11:21 AM CST
Length of Visible Light 11h 21m
Length of Day
10h 30m
Waning Gibbous, 55% of the Moon is Illuminated
Jan 23
Waning Gibbous
Jan 23
Last Quarter
Jan 30
New
Feb 6
First Quarter
Feb 14
Full

Hourly Weather History & Observations

Time (CST) Temp. Windchill Dew Point Humidity Pressure Visibility Wind Dir Wind Speed Gust Speed Precip Events Conditions
12:53 AM 46.9 °F - 39.0 °F 74% 30.13 in 10.0 mi ESE 4.6 mph - N/A   Clear
1:53 AM 48.0 °F - 41.0 °F 77% 30.14 in 10.0 mi ENE 3.5 mph - N/A   Clear
2:53 AM 44.1 °F 40.8 °F 39.0 °F 82% 30.14 in 10.0 mi East 5.8 mph - N/A   Clear
3:53 AM 46.0 °F 43.9 °F 41.0 °F 83% 30.15 in 10.0 mi ENE 4.6 mph - N/A   Partly Cloudy
4:53 AM 46.9 °F - 39.9 °F 77% 30.18 in 10.0 mi NNE 6.9 mph - N/A   Mostly Cloudy
5:53 AM 46.9 °F - 39.0 °F 74% 30.21 in 10.0 mi NNE 6.9 mph - N/A   Overcast
6:21 AM 46.4 °F 42.9 °F 39.2 °F 76% 30.22 in 10.0 mi NE 6.9 mph - N/A   Overcast
6:53 AM 46.0 °F 43.1 °F 37.0 °F 71% 30.25 in 10.0 mi NE 5.8 mph - N/A   Overcast
7:53 AM 46.0 °F 41.0 °F 35.1 °F 66% 30.28 in 10.0 mi NE 10.4 mph 16.1 mph N/A   Overcast
8:53 AM 45.0 °F 39.3 °F 36.0 °F 71% 30.32 in 10.0 mi NNE 11.5 mph 19.6 mph N/A   Overcast
9:53 AM 42.1 °F 36.6 °F 34.0 °F 73% 30.36 in 9.0 mi NNE 9.2 mph - 0.00 in Rain Light Rain
10:53 AM 41.0 °F 33.5 °F 32.0 °F 70% 30.40 in 10.0 mi NNE 13.8 mph 18.4 mph 0.00 in   Overcast
11:53 AM 39.0 °F 30.6 °F 32.0 °F 76% 30.40 in 9.0 mi NNE 15.0 mph 23.0 mph 0.00 in Rain Light Rain
12:53 PM 37.0 °F 27.0 °F 32.0 °F 82% 30.41 in 4.0 mi NE 18.4 mph 28.8 mph 0.06 in Rain Light Rain
1:35 PM 35.6 °F 27.5 °F 30.2 °F 81% 30.41 in 2.5 mi NNE 11.5 mph 27.6 mph 0.08 in Rain Rain
1:53 PM 36.0 °F 28.5 °F 32.0 °F 86% 30.43 in 3.0 mi NNE 10.4 mph - 0.10 in Rain Light Rain
2:06 PM 35.6 °F 26.6 °F 30.2 °F 81% 30.43 in 2.5 mi NNE 13.8 mph 19.6 mph 0.02 in Rain Light Rain
2:15 PM 35.6 °F 27.5 °F 30.2 °F 81% 30.43 in 3.0 mi NNE 11.5 mph 20.7 mph 0.03 in Rain Light Rain
2:28 PM 35.6 °F 27.5 °F 32.0 °F 87% 30.43 in 2.0 mi NNE 11.5 mph 19.6 mph 0.04 in Rain Rain
2:53 PM 37.0 °F 32.4 °F 32.0 °F 82% 30.44 in 3.0 mi NE 5.8 mph - 0.07 in Rain Light Rain
3:38 PM 37.4 °F 30.3 °F 32.0 °F 81% 30.46 in 2.5 mi NE 10.4 mph 17.3 mph 0.02 in Rain Light Rain
3:53 PM 37.0 °F 31.0 °F 32.0 °F 82% 30.48 in 3.0 mi NNE 8.1 mph - 0.04 in Rain Light Rain
4:53 PM 36.0 °F 28.0 °F 30.9 °F 82% 30.51 in 5.0 mi NNE 11.5 mph 19.6 mph 0.04 in Rain Light Rain
5:53 PM 35.1 °F 29.3 °F 30.9 °F 85% 30.54 in 7.0 mi NE 6.9 mph 17.3 mph 0.05 in Rain Light Rain
6:50 PM 35.6 °F 28.6 °F 30.2 °F 81% 30.58 in 6.0 mi North 9.2 mph - 0.04 in Rain Light Rain
6:53 PM 35.1 °F 26.4 °F 30.9 °F 85% 30.58 in 6.0 mi NNE 12.7 mph - 0.04 in Rain Light Rain
7:14 PM 35.6 °F 27.1 °F 30.2 °F 81% 30.60 in 5.0 mi NNE 12.7 mph 18.4 mph 0.00 in Rain Light Rain
7:23 PM 35.6 °F 27.5 °F 30.2 °F 81% 30.60 in 4.0 mi NNE 11.5 mph - 0.01 in Rain Light Rain
7:39 PM 35.6 °F 28.6 °F 30.2 °F 81% 30.61 in 4.0 mi NNE 9.2 mph 19.6 mph 0.02 in Rain Light Freezing Rain
7:51 PM 33.8 °F 27.0 °F 30.2 °F 87% 30.61 in 5.0 mi NNE 8.1 mph - 0.03 in Rain Light Freezing Rain
7:53 PM 34.0 °F 25.5 °F 30.0 °F 85% 30.61 in 5.0 mi NNE 11.5 mph 16.1 mph 0.03 in Rain Light Freezing Rain
8:05 PM 33.8 °F 27.7 °F 30.2 °F 87% 30.62 in 5.0 mi NNE 6.9 mph - 0.00 in Rain Light Freezing Rain
8:19 PM 33.8 °F 24.3 °F 28.4 °F 81% 30.63 in 4.0 mi NE 13.8 mph 23.0 mph 0.01 in Snow Light Snow
8:36 PM 33.8 °F 24.3 °F 28.4 °F 81% 30.64 in 2.5 mi NE 13.8 mph 24.2 mph 0.01 in Snow Light Snow
8:48 PM 33.8 °F 25.8 °F 28.4 °F 81% 30.64 in 1.8 mi NE 10.4 mph - 0.01 in Snow Light Snow
8:49 PM 33.1 °F 24.4 °F 28.0 °F 82% 30.64 in 1.8 mi NE 11.5 mph - 0.01 in Snow Light Snow
8:56 PM 33.8 °F 27.7 °F 28.4 °F 81% 30.64 in 1.5 mi NE 6.9 mph 16.1 mph 0.00 in Snow Light Snow
9:01 PM 33.8 °F 27.0 °F 28.4 °F 81% 30.64 in 1.5 mi NE 8.1 mph - 0.00 in Snow Light Snow
9:09 PM 32.0 °F 23.0 °F 26.6 °F 80% 30.64 in 1.8 mi NE 11.5 mph 19.6 mph 0.00 in Snow Light Snow
9:14 PM 32.0 °F 22.1 °F 26.6 °F 80% 30.65 in 1.8 mi NE 13.8 mph 23.0 mph 0.00 in Snow Light Snow
9:25 PM 32.0 °F 23.0 °F 26.6 °F 80% 30.65 in 2.0 mi NE 11.5 mph 21.9 mph 0.00 in Snow Light Snow
9:45 PM 32.0 °F 25.6 °F 28.4 °F 87% 30.67 in 2.5 mi NE 6.9 mph - 0.00 in Snow Light Snow
9:48 PM 32.0 °F 25.6 °F 26.6 °F 80% 30.67 in 3.0 mi NE 6.9 mph - 0.00 in Snow Light Snow
9:53 PM 32.0 °F 23.6 °F 27.0 °F 82% 30.67 in 3.0 mi NE 10.4 mph - 0.00 in Snow Light Snow
10:02 PM 30.2 °F 21.3 °F 26.6 °F 86% 30.67 in 2.5 mi NE 10.4 mph 19.6 mph 0.00 in Snow Light Snow
10:08 PM 30.2 °F 21.9 °F 26.6 °F 86% 30.67 in 2.0 mi NE 9.2 mph 19.6 mph 0.00 in Snow Light Snow
10:16 PM 30.2 °F 21.3 °F 26.6 °F 86% 30.67 in 1.5 mi NE 10.4 mph 18.4 mph 0.01 in Snow Light Snow
10:53 PM 30.0 °F 23.2 °F 26.1 °F 85% 30.68 in 1.0 mi NE 6.9 mph - 0.01 in Snow Light Snow
11:05 PM 30.2 °F 22.6 °F 26.6 °F 86% 30.69 in 1.0 mi NE 8.1 mph - 0.01 in Snow Light Snow
11:24 PM 30.2 °F 21.9 °F 24.8 °F 80% 30.69 in 1.5 mi NE 9.2 mph 18.4 mph 0.01 in Snow Light Snow
11:45 PM 30.2 °F 21.9 °F 26.6 °F 86% 30.69 in 1.2 mi NE 9.2 mph - 0.02 in Snow Light Snow
11:53 PM 28.9 °F 21.9 °F 25.0 °F 85% 30.69 in 1.2 mi NE 6.9 mph - 0.02 in Snow Light Snow